Location: Newark
(47.5000°N, 4.6167°E)
Time: 00:02:18
(UTC+00:00)

ISS - Pass Details

Date: 17 May 2021
Orbit: 417 x 422 km, 51.6° (Epoch: 14 June)

Event Time Altitude Azimuth Distance (km) Brightness Sun altitude
Rises 21:38:45 0° 264° (W) 2,362 0.4 -17.8°
Reaches altitude 10° 21:40:53 10° 270° (W) 1,500 -0.6 -18.0°
Maximum altitude 21:44:10 48° 347° (NNW) 555 -2.8 -18.3°
Drops below altitude 10° 21:47:28 10° 63° (ENE) 1,506 -1.0 -18.5°
Sets 21:49:37 0° 70° (ENE) 2,373 0.0 -18.7°
